Location: Bemmer
(51.5498°N, 5.6249°E)
Time: 10:25:00
(UTC+00:00)

ERS-1 Rocket - Pass Details

Date: 03 March 2021
Orbit: 752 x 758 km, 98.4° (Epoch: 16 April)

Event Time Altitude Azimuth Distance (km) Brightness Sun altitude
Exits shadow 20:04:10 25° 31° (NNE) 1,507 4.4 -25.6°
Drops below altitude 10° 20:06:59 10° 2° (N) 2,301 5.7 -26.0°
Sets 20:09:32 0° 352° (N) 3,230 6.7 -26.3°
